Location: Newark
(48.6461°N, 4.3644°W)
Time: 14:36:20
(UTC+00:00)

S-56A Canister/Altair - Pass Details

Date: 20 January 2020
Orbit: 633 x 2500 km, 38.9° (Epoch: 28 February)

Event Time Altitude Azimuth Distance (km) Brightness Sun altitude
Rises 01:58:35 0° 258° (WSW) 2,917 - -56.3°
Reaches altitude 10° 02:01:14 10° 241° (WSW) 2,038 - -56.0°
Maximum altitude 02:04:38 21° 192° (SSW) 1,546 - -55.7°
Drops below altitude 10° 02:08:32 10° 144° (SE) 2,364 - -55.2°
Sets 02:11:55 0° 129° (SE) 3,547 - -54.8°
